Wichita Mid Continent Airport
KICT : rendu visible

Aérodrome :











RETROUVEZ-NOUS SUR...

 
LOGIN :

S'inscrire | Disclaimer

   EN    FR    IT 

 









Légende :    VFR   VFR Marginal   IFR   IFR Intensif   IFR Très Intensif
Visi : 
Plafond : 
>= 8 km
>= 3000ft
5 à 8 km
1000 à 3000 ft
1500m à 5 km
500 à 1000 ft
800 à 1500m
200 à 500 ft
< 800m
< 200 ft
Symboles :   Orages  Brouillard  Fortes neiges  Fortes précipitations  Vent > 20 kt






- Altitude de l'aérodrome : 1333 ft
- Code IATA : ICT


KICT - Wichita Mid Continent

DERNIER METAR :
  • 021353Z 16016G25KT 10SM CLR 16/09 A2976 RMK AO2 PK WND 14027/1331 SLP071 T01560089

METARs EXPIRÉS :
  • 021253Z 16015G25KT 10SM FEW050 SCT130 SCT180 14/08 A2975 RMK AO2 PK WND 15026/1226 SLP067 T01440083

TAF KICT
Valide du 02 à 12h jusqu'au 03 à 12h UTC


021138Z 0212/0312 16015G25KT P6SM FEW040 SCT120 WS020/18045KT
FM021500 17020G30KT P6SM SCT050 BKN120
FM030200 02015KT P6SM OVC015
FM030600 35015G25KT 6SM -RA BR SCT007 OVC015
FM030900 35015G25KT P6SM BKN007



MET'MAP, la Météo Aéronautique d'un coup d'oeil ! - Copyright ORBIFLY Décembre 2007 - Disclaimer

ORBIFLY MET'MAP TEAM :

Programmation & Développement : Alexandra Zaïnal
Sur une idée originale de : Baudouin d'Aumeries
Assistance à la programmation : Marc-Olivier Méhu
Soutien technique & logistique : Manuel Goepfert

Contact : metmap@orbifly.com




SOURCES & CREDITS :

   NOAA       Earth
Advisory